����������;��������(kVARh)
2015-07-20 00:00;3
2015-07-20 00:15;2
2015-07-20 00:30;0
2015-07-20 00:45;0
2015-07-20 01:00;0,15
2015-07-20 01:15;0,2
2015-07-20 01:30;3,1
2015-07-20 01:45;0,05
2015-07-20 02:00;0,05
2015-07-20 02:15;0,3
2015-07-20 02:30;0,75
2015-07-20 02:45;3,45
2015-07-20 03:00;0,1
2015-07-20 03:15;0,55
2015-07-20 03:30;0,95
2015-07-20 03:45;0,5
2015-07-20 04:00;4,25
2015-07-20 04:15;1,35
2015-07-20 04:30;0,35
2015-07-20 04:45;0,1
2015-07-20 05:00;4,35
2015-07-20 05:15;8,35
2015-07-20 05:30;8,85
2015-07-20 05:45;8,8
2015-07-20 06:00;5,9
2015-07-20 06:15;3,75
2015-07-20 06:30;2,45
2015-07-20 06:45;2,35
2015-07-20 07:00;1,8
2015-07-20 07:15;0,75
2015-07-20 07:30;0,95
2015-07-20 07:45;19,25
2015-07-20 08:00;30,95
2015-07-20 08:15;24,1
2015-07-20 08:30;17,7
2015-07-20 08:45;13,45
2015-07-20 09:00;15,25
2015-07-20 09:15;21
2015-07-20 09:30;26,65
2015-07-20 09:45;22,8
2015-07-20 10:00;16,15
2015-07-20 10:15;29,35
2015-07-20 10:30;29,35
2015-07-20 10:45;23,85
2015-07-20 11:00;32,85
2015-07-20 11:15;33,25
2015-07-20 11:30;39,4
2015-07-20 11:45;43,2
2015-07-20 12:00;41,6
2015-07-20 12:15;43,7
2015-07-20 12:30;53,5
2015-07-20 12:45;55,75
2015-07-20 13:00;43,8
2015-07-20 13:15;43,55
2015-07-20 13:30;37,6
2015-07-20 13:45;49,8
2015-07-20 14:00;51,05
2015-07-20 14:15;38,8
2015-07-20 14:30;40,45
2015-07-20 14:45;46,3
2015-07-20 15:00;40,35
2015-07-20 15:15;38,15
2015-07-20 15:30;35
2015-07-20 15:45;34,55
2015-07-20 16:00;28,45
2015-07-20 16:15;26
2015-07-20 16:30;23,5
2015-07-20 16:45;23,1
2015-07-20 17:00;26,45
2015-07-20 17:15;20,55
2015-07-20 17:30;19,75
2015-07-20 17:45;15,9
2015-07-20 18:00;24,7
2015-07-20 18:15;13,6
2015-07-20 18:30;5,6
2015-07-20 18:45;3,55
2015-07-20 19:00;2,65
2015-07-20 19:15;2,7
2015-07-20 19:30;0,35
2015-07-20 19:45;0,05
2015-07-20 20:00;0
2015-07-20 20:15;2,85
2015-07-20 20:30;0,55
2015-07-20 20:45;0,05
2015-07-20 21:00;0,4
2015-07-20 21:15;0,05
2015-07-20 21:30;1,3
2015-07-20 21:45;0
2015-07-20 22:00;0
2015-07-20 22:15;0,2
2015-07-20 22:30;0
2015-07-20 22:45;0,95
2015-07-20 23:00;0,15
2015-07-20 23:15;0,05
2015-07-20 23:30;0
2015-07-20 23:45;0,75
2015-07-21 00:00;4,35
2015-07-21 00:15;0,3
2015-07-21 00:30;0,4
2015-07-21 00:45;0,2
2015-07-21 01:00;0
2015-07-21 01:15;0,2
2015-07-21 01:30;0,3
2015-07-21 01:45;0
2015-07-21 02:00;0
2015-07-21 02:15;0,05
2015-07-21 02:30;0
2015-07-21 02:45;0,35
2015-07-21 03:00;0,1
2015-07-21 03:15;0
2015-07-21 03:30;0
2015-07-21 03:45;0
2015-07-21 04:00;9,8
2015-07-21 04:15;3,6
2015-07-21 04:30;1,75
2015-07-21 04:45;0
2015-07-21 05:00;5,95
2015-07-21 05:15;7,4
2015-07-21 05:30;6,85
2015-07-21 05:45;1,7
2015-07-21 06:00;5,1
2015-07-21 06:15;1,15
2015-07-21 06:30;1
2015-07-21 06:45;1
2015-07-21 07:00;2,2
2015-07-21 07:15;0,6
2015-07-21 07:30;1,9
2015-07-21 07:45;19,5
2015-07-21 08:00;36,2
2015-07-21 08:15;35,5
2015-07-21 08:30;13,8
2015-07-21 08:45;18,1
2015-07-21 09:00;18,35
2015-07-21 09:15;21,25
2015-07-21 09:30;26,2
2015-07-21 09:45;19,3
2015-07-21 10:00;34,4
2015-07-21 10:15;33,9
2015-07-21 10:30;39
2015-07-21 10:45;38,2
2015-07-21 11:00;36,75
2015-07-21 11:15;45,7
2015-07-21 11:30;45,75
2015-07-21 11:45;45
2015-07-21 12:00;50,7
2015-07-21 12:15;42,3
2015-07-21 12:30;47,25
2015-07-21 12:45;51,25
2015-07-21 13:00;42,25
2015-07-21 13:15;48,5
2015-07-21 13:30;53,4
2015-07-21 13:45;50,35
2015-07-21 14:00;46,5
2015-07-21 14:15;35,05
2015-07-21 14:30;42,55
2015-07-21 14:45;37,4
2015-07-21 15:00;36,4
2015-07-21 15:15;33,65
2015-07-21 15:30;34,7
2015-07-21 15:45;31,95
2015-07-21 16:00;23,3
2015-07-21 16:15;23,7
2015-07-21 16:30;29,6
2015-07-21 16:45;28,7
2015-07-21 17:00;24,4
2015-07-21 17:15;16,3
2015-07-21 17:30;16
2015-07-21 17:45;19,95
2015-07-21 18:00;9,65
2015-07-21 18:15;9,55
2015-07-21 18:30;3,9
2015-07-21 18:45;3,25
2015-07-21 19:00;1,85
2015-07-21 19:15;1,75
2015-07-21 19:30;1,25
2015-07-21 19:45;0,1
2015-07-21 20:00;1,4
2015-07-21 20:15;1,45
2015-07-21 20:30;0,15
2015-07-21 20:45;0,05
2015-07-21 21:00;0
2015-07-21 21:15;0,3
2015-07-21 21:30;0,45
2015-07-21 21:45;0
2015-07-21 22:00;0
2015-07-21 22:15;0
2015-07-21 22:30;0,95
2015-07-21 22:45;0,15
2015-07-21 23:00;0
2015-07-21 23:15;0,65
2015-07-21 23:30;0,45
2015-07-21 23:45;2,65
2015-07-22 00:00;3,8
2015-07-22 00:15;0
2015-07-22 00:30;0,6
2015-07-22 00:45;0,5
2015-07-22 01:00;2,25
2015-07-22 01:15;1,1
2015-07-22 01:30;0,1
2015-07-22 01:45;0
2015-07-22 02:00;0
2015-07-22 02:15;0,2
2015-07-22 02:30;1,25
2015-07-22 02:45;0
2015-07-22 03:00;0,05
2015-07-22 03:15;0
2015-07-22 03:30;0
2015-07-22 03:45;1,7
2015-07-22 04:00;1,55
2015-07-22 04:15;4,15
2015-07-22 04:30;3,55
2015-07-22 04:45;1,7
2015-07-22 05:00;1
2015-07-22 05:15;5,45
2015-07-22 05:30;3,05
2015-07-22 05:45;2
2015-07-22 06:00;0,4
2015-07-22 06:15;3,2
2015-07-22 06:30;2
2015-07-22 06:45;1
2015-07-22 07:00;0,05
2015-07-22 07:15;1,15
2015-07-22 07:30;0
2015-07-22 07:45;19
2015-07-22 08:00;37,9
2015-07-22 08:15;18,95
2015-07-22 08:30;12,05
2015-07-22 08:45;17,8
2015-07-22 09:00;15,3
2015-07-22 09:15;20
2015-07-22 09:30;29
2015-07-22 09:45;40,25
2015-07-22 10:00;37,25
2015-07-22 10:15;40,4
2015-07-22 10:30;35,15
2015-07-22 10:45;38,45
2015-07-22 11:00;43,3
2015-07-22 11:15;35
2015-07-22 11:30;49,4
2015-07-22 11:45;37,95
2015-07-22 12:00;36,4
2015-07-22 12:15;39,9
2015-07-22 12:30;37,95
2015-07-22 12:45;44,6
2015-07-22 13:00;43,05
2015-07-22 13:15;44,05
2015-07-22 13:30;50,2
2015-07-22 13:45;48,85
2015-07-22 14:00;42,25
2015-07-22 14:15;38,4
2015-07-22 14:30;38,25
2015-07-22 14:45;47,9
2015-07-22 15:00;41,95
2015-07-22 15:15;39,4
2015-07-22 15:30;34,3
2015-07-22 15:45;37,05
2015-07-22 16:00;29,35
2015-07-22 16:15;29,2
2015-07-22 16:30;26,55
2015-07-22 16:45;28,05
2015-07-22 17:00;23,8
2015-07-22 17:15;21
2015-07-22 17:30;23,9
2015-07-22 17:45;23,75
2015-07-22 18:00;21,45
2015-07-22 18:15;16,4
2015-07-22 18:30;15,75
2015-07-22 18:45;18,25
2015-07-22 19:00;7,7
2015-07-22 19:15;4,7
2015-07-22 19:30;0,6
2015-07-22 19:45;1,7
2015-07-22 20:00;0,9
2015-07-22 20:15;0
2015-07-22 20:30;0,15
2015-07-22 20:45;0
2015-07-22 21:00;0,65
2015-07-22 21:15;0,1
2015-07-22 21:30;0
2015-07-22 21:45;0
2015-07-22 22:00;0
2015-07-22 22:15;0
2015-07-22 22:30;0
2015-07-22 22:45;0
2015-07-22 23:00;0
2015-07-22 23:15;0
2015-07-22 23:30;0,2
2015-07-22 23:45;1,35
2015-07-23 00:00;0,15
2015-07-23 00:15;0
2015-07-23 00:30;0
2015-07-23 00:45;0,05
2015-07-23 01:00;0,05
2015-07-23 01:15;0
2015-07-23 01:30;0
2015-07-23 01:45;0
2015-07-23 02:00;1,95
2015-07-23 02:15;1,55
2015-07-23 02:30;0,3
2015-07-23 02:45;0
2015-07-23 03:00;0
2015-07-23 03:15;0
2015-07-23 03:30;0
2015-07-23 03:45;0
2015-07-23 04:00;0,15
2015-07-23 04:15;0
2015-07-23 04:30;0
2015-07-23 04:45;0,65
2015-07-23 05:00;2,1
2015-07-23 05:15;2,95
2015-07-23 05:30;1,75
2015-07-23 05:45;0,35
2015-07-23 06:00;0,05
2015-07-23 06:15;2,85
2015-07-23 06:30;0
2015-07-23 06:45;0,15
2015-07-23 07:00;0
2015-07-23 07:15;0,05
2015-07-23 07:30;2,4
2015-07-23 07:45;20,5
2015-07-23 08:00;23,55
2015-07-23 08:15;18,2
2015-07-23 08:30;22,7
2015-07-23 08:45;24,6
2015-07-23 09:00;23,7
2015-07-23 09:15;23,1
2015-07-23 09:30;21,55
2015-07-23 09:45;22,25
2015-07-23 10:00;30,85
2015-07-23 10:15;25,8
2015-07-23 10:30;38,55
2015-07-23 10:45;42,5
2015-07-23 11:00;49,05
2015-07-23 11:15;51,65
2015-07-23 11:30;53,45
2015-07-23 11:45;52,35
2015-07-23 12:00;51,45
2015-07-23 12:15;47,95
2015-07-23 12:30;55,9
2015-07-23 12:45;51,7
2015-07-23 13:00;47,15
2015-07-23 13:15;49,15
2015-07-23 13:30;43,85
2015-07-23 13:45;48,7
2015-07-23 14:00;49,3
2015-07-23 14:15;36,85
2015-07-23 14:30;36,5
2015-07-23 14:45;36,4
2015-07-23 15:00;43,1
2015-07-23 15:15;33,7
2015-07-23 15:30;27,2
2015-07-23 15:45;22,55
2015-07-23 16:00;24,45
2015-07-23 16:15;14,95
2015-07-23 16:30;11,2
2015-07-23 16:45;6,25
2015-07-23 17:00;19,2
2015-07-23 17:15;10,35
2015-07-23 17:30;10,05
2015-07-23 17:45;11,5
2015-07-23 18:00;14,55
2015-07-23 18:15;4,75
2015-07-23 18:30;2,05
2015-07-23 18:45;3,9
2015-07-23 19:00;6,9
2015-07-23 19:15;9,2
2015-07-23 19:30;4,85
2015-07-23 19:45;8,85
2015-07-23 20:00;7,95
2015-07-23 20:15;10,9
2015-07-23 20:30;5,35
2015-07-23 20:45;0,65
2015-07-23 21:00;0,2
2015-07-23 21:15;0
2015-07-23 21:30;4,55
2015-07-23 21:45;2,6
2015-07-23 22:00;2,2
2015-07-23 22:15;2,8
2015-07-23 22:30;2,35
2015-07-23 22:45;9,05
2015-07-23 23:00;6,7
2015-07-23 23:15;5,2
2015-07-23 23:30;3,9
2015-07-23 23:45;8,85
2015-07-24 00:00;13,7
2015-07-24 00:15;11,15
2015-07-24 00:30;6,35
2015-07-24 00:45;6,6
2015-07-24 01:00;6,15
2015-07-24 01:15;5,45
2015-07-24 01:30;4,55
2015-07-24 01:45;0,25
2015-07-24 02:00;0,35
2015-07-24 02:15;0,6
2015-07-24 02:30;1,65
2015-07-24 02:45;3,4
2015-07-24 03:00;2,25
2015-07-24 03:15;1,6
2015-07-24 03:30;1,55
2015-07-24 03:45;1,8
2015-07-24 04:00;6,2
2015-07-24 04:15;1
2015-07-24 04:30;1,3
2015-07-24 04:45;3,5
2015-07-24 05:00;2,5
2015-07-24 05:15;5,35
2015-07-24 05:30;11,3
2015-07-24 05:45;13,1
2015-07-24 06:00;8,2
2015-07-24 06:15;9,55
2015-07-24 06:30;9,85
2015-07-24 06:45;6,55
2015-07-24 07:00;1
2015-07-24 07:15;4,35
2015-07-24 07:30;6,35
2015-07-24 07:45;24,9
2015-07-24 08:00;46,3
2015-07-24 08:15;39,35
2015-07-24 08:30;26,15
2015-07-24 08:45;31,05
2015-07-24 09:00;22,45
2015-07-24 09:15;31,7
2015-07-24 09:30;29,3
2015-07-24 09:45;26,75
2015-07-24 10:00;27,25
2015-07-24 10:15;42,3
2015-07-24 10:30;42,3
2015-07-24 10:45;45,9
2015-07-24 11:00;45,3
2015-07-24 11:15;48,3
2015-07-24 11:30;50,5
2015-07-24 11:45;43,25
2015-07-24 12:00;48,25
2015-07-24 12:15;42,25
2015-07-24 12:30;46,8
2015-07-24 12:45;44,4
2015-07-24 13:00;33,85
2015-07-24 13:15;44,3
2015-07-24 13:30;48,5
2015-07-24 13:45;34
2015-07-24 14:00;47,9
2015-07-24 14:15;34,9
2015-07-24 14:30;36,2
2015-07-24 14:45;41,8
2015-07-24 15:00;34,05
2015-07-24 15:15;36
2015-07-24 15:30;35,85
2015-07-24 15:45;29,7
2015-07-24 16:00;22,95
2015-07-24 16:15;19,75
2015-07-24 16:30;26,75
2015-07-24 16:45;18,65
2015-07-24 17:00;13,55
2015-07-24 17:15;11,45
2015-07-24 17:30;9,9
2015-07-24 17:45;12,8
2015-07-24 18:00;7,6
2015-07-24 18:15;5,55
2015-07-24 18:30;5,85
2015-07-24 18:45;4,7
2015-07-24 19:00;2
2015-07-24 19:15;0,75
2015-07-24 19:30;0,1
2015-07-24 19:45;1,65
2015-07-24 20:00;5,35
2015-07-24 20:15;2,85
2015-07-24 20:30;2,75
2015-07-24 20:45;0,2
2015-07-24 21:00;0,05
2015-07-24 21:15;1,05
2015-07-24 21:30;0,15
2015-07-24 21:45;0,15
2015-07-24 22:00;1,55
2015-07-24 22:15;0,3
2015-07-24 22:30;3,75
2015-07-24 22:45;0,65
2015-07-24 23:00;1,2
2015-07-24 23:15;1,45
2015-07-24 23:30;3,5
2015-07-24 23:45;7,9
2015-07-25 00:00;3,1
2015-07-25 00:15;1,25
2015-07-25 00:30;0
2015-07-25 00:45;0
2015-07-25 01:00;3
2015-07-25 01:15;0,2
2015-07-25 01:30;0
2015-07-25 01:45;0
2015-07-25 02:00;0
2015-07-25 02:15;0,1
2015-07-25 02:30;0,1
2015-07-25 02:45;0
2015-07-25 03:00;0
2015-07-25 03:15;0,1
2015-07-25 03:30;0,85
2015-07-25 03:45;1,55
2015-07-25 04:00;0,15
2015-07-25 04:15;0
2015-07-25 04:30;0
2015-07-25 04:45;0,55
2015-07-25 05:00;1,9
2015-07-25 05:15;0
2015-07-25 05:30;0,3
2015-07-25 05:45;0
2015-07-25 06:00;0
2015-07-25 06:15;1,25
2015-07-25 06:30;0,8
2015-07-25 06:45;0
2015-07-25 07:00;0
2015-07-25 07:15;0,25
2015-07-25 07:30;0,25
2015-07-25 07:45;12,85
2015-07-25 08:00;10
2015-07-25 08:15;5,45
2015-07-25 08:30;2,05
2015-07-25 08:45;3,65
2015-07-25 09:00;4,25
2015-07-25 09:15;1,2
2015-07-25 09:30;0,8
2015-07-25 09:45;1,15
2015-07-25 10:00;4,2
2015-07-25 10:15;0,55
2015-07-25 10:30;0,05
2015-07-25 10:45;0,75
2015-07-25 11:00;2,3
2015-07-25 11:15;3,8
2015-07-25 11:30;0,1
2015-07-25 11:45;0,8
2015-07-25 12:00;0,6
2015-07-25 12:15;5,8
2015-07-25 12:30;1,05
2015-07-25 12:45;0,4
2015-07-25 13:00;0,45
2015-07-25 13:15;3
2015-07-25 13:30;0
2015-07-25 13:45;0
2015-07-25 14:00;1,4
2015-07-25 14:15;6,8
2015-07-25 14:30;0,75
2015-07-25 14:45;0,45
2015-07-25 15:00;0,65
2015-07-25 15:15;6,15
2015-07-25 15:30;1,85
2015-07-25 15:45;2,35
2015-07-25 16:00;1,9
2015-07-25 16:15;6,8
2015-07-25 16:30;5,6
2015-07-25 16:45;4,95
2015-07-25 17:00;5,55
2015-07-25 17:15;9,4
2015-07-25 17:30;2,3
2015-07-25 17:45;2,45
2015-07-25 18:00;5,2
2015-07-25 18:15;10,8
2015-07-25 18:30;7,1
2015-07-25 18:45;5,9
2015-07-25 19:00;5,25
2015-07-25 19:15;6,3
2015-07-25 19:30;0,75
2015-07-25 19:45;2
2015-07-25 20:00;4,3
2015-07-25 20:15;4,15
2015-07-25 20:30;0,1
2015-07-25 20:45;0
2015-07-25 21:00;0
2015-07-25 21:15;0
2015-07-25 21:30;0,1
2015-07-25 21:45;0
2015-07-25 22:00;0
2015-07-25 22:15;0,05
2015-07-25 22:30;0,1
2015-07-25 22:45;0
2015-07-25 23:00;0
2015-07-25 23:15;0
2015-07-25 23:30;1,6
2015-07-25 23:45;2,1
2015-07-26 00:00;0,65
2015-07-26 00:15;0
2015-07-26 00:30;0
2015-07-26 00:45;0
2015-07-26 01:00;0
2015-07-26 01:15;0
2015-07-26 01:30;0
2015-07-26 01:45;0
2015-07-26 02:00;0,05
2015-07-26 02:15;0
2015-07-26 02:30;0,15
2015-07-26 02:45;0,05
2015-07-26 03:00;0
2015-07-26 03:15;0,6
2015-07-26 03:30;0
2015-07-26 03:45;0
2015-07-26 04:00;0,4
2015-07-26 04:15;0
2015-07-26 04:30;0,05
2015-07-26 04:45;0
2015-07-26 05:00;0
2015-07-26 05:15;0
2015-07-26 05:30;0
2015-07-26 05:45;1
2015-07-26 06:00;0
2015-07-26 06:15;0
2015-07-26 06:30;0
2015-07-26 06:45;0
2015-07-26 07:00;1
2015-07-26 07:15;0
2015-07-26 07:30;0
2015-07-26 07:45;0
2015-07-26 08:00;0
2015-07-26 08:15;1,3
2015-07-26 08:30;3,6
2015-07-26 08:45;3,6
2015-07-26 09:00;3,85
2015-07-26 09:15;5,4
2015-07-26 09:30;0,1
2015-07-26 09:45;0,65
2015-07-26 10:00;0,45
2015-07-26 10:15;4,45
2015-07-26 10:30;0
2015-07-26 10:45;0
2015-07-26 11:00;0
2015-07-26 11:15;3,5
2015-07-26 11:30;3,9
2015-07-26 11:45;0
2015-07-26 12:00;0,45
2015-07-26 12:15;0,8
2015-07-26 12:30;0,2
2015-07-26 12:45;0,05
2015-07-26 13:00;1,6
2015-07-26 13:15;1,45
2015-07-26 13:30;0
2015-07-26 13:45;0
2015-07-26 14:00;0,6
2015-07-26 14:15;0
2015-07-26 14:30;0
2015-07-26 14:45;0
2015-07-26 15:00;1,75
2015-07-26 15:15;0,4
2015-07-26 15:30;0
2015-07-26 15:45;0
2015-07-26 16:00;0,3
2015-07-26 16:15;0,2
2015-07-26 16:30;0
2015-07-26 16:45;0
2015-07-26 17:00;1,45
2015-07-26 17:15;1,55
2015-07-26 17:30;0,15
2015-07-26 17:45;0
2015-07-26 18:00;0,65
2015-07-26 18:15;0
2015-07-26 18:30;0
2015-07-26 18:45;0
2015-07-26 19:00;0
2015-07-26 19:15;0
2015-07-26 19:30;0
2015-07-26 19:45;0
2015-07-26 20:00;0
2015-07-26 20:15;0
2015-07-26 20:30;0
2015-07-26 20:45;0
2015-07-26 21:00;0
2015-07-26 21:15;0
2015-07-26 21:30;0
2015-07-26 21:45;0
2015-07-26 22:00;0
2015-07-26 22:15;0,25
2015-07-26 22:30;0,05
2015-07-26 22:45;0
2015-07-26 23:00;0
2015-07-26 23:15;0,45
2015-07-26 23:30;0,25
2015-07-26 23:45;1,3

